GW5324 Weather Reports


Display with metric or nautical units.
time (UTC)temp
F
wind
direction
speed
MPH
gust
MPH
rain 1hr
in
rain 24hr
in
rain mn
in
humidity
%
barometer
mb
20260901041508 74 127 2.0 2.0 0.00 0.00 0.00 46 1007.6
20260901040014 75 244 0.0 2.0 0.00 0.00 0.00 45 1007.4
20260901034521 77 250 0.0 1.0 0.00 0.00 0.00 41 1007.3
20260901033027 78 181 0.0 4.0 0.00 0.00 0.00 40 1006.9
20260901031533 79 196 3.0 6.0 0.00 0.00 0.00 39 1006.9
20260901030031 80 236 5.0 8.0 0.00 0.00 0.00 39 1006.6
20260901024517 81 198 5.0 11.0 0.00 0.00 0.00 38 1006.7
20260901023023 82 185 6.0 8.0 0.00 0.00 0.00 37 1006.6
20260901021536 83 224 7.0 10.0 0.00 0.00 0.00 37 1006.6
20260901020033 84 194 6.0 10.0 0.00 0.00 0.00 37 1006.5
20260901014535 84 221 8.0 11.0 0.00 0.00 0.00 35 1006.4
20260901013024 85 208 4.0 10.0 0.00 0.00 0.00 36 1006.3
20260901011504 85 240 1.0 5.0 0.00 0.00 0.00 34 1006.5
20260901010051 85 323 1.0 4.0 0.00 0.00 0.00 35 1006.5
20260901004537 85 329 2.0 6.0 0.00 0.00 0.00 36 1006.6
20260901003039 85 334 3.0 5.0 0.00 0.00 0.00 35 1006.5
20260901001504 85 323 2.0 4.0 0.00 0.00 0.00 35 1006.6
20260901000005 85 327 3.0 5.0 0.00 0.00 0.00 35 1006.8
20260831234513 86 352 1.0 5.0 0.00 0.00 0.00 33 1006.7
20260831233032 86 74 2.0 5.0 0.00 0.00 0.00 32 1006.9
20260831231502 85 317 3.0 6.0 0.00 0.00 0.00 33 1006.9
20260831230030 85 254 1.0 5.0 0.00 0.00 0.00 34 1006.9
20260831224511 84 352 2.0 5.0 0.00 0.00 0.00 34 1007.2
20260831223014 83 339 4.0 8.0 0.00 0.00 0.00 36 1007.3
20260831221530 83 321 4.0 7.0 0.00 0.00 0.00 38 1007.5
20260831220036 82 338 2.0 8.0 0.00 0.00 0.00 38 1007.7
20260831214539 84 246 1.0 6.0 0.00 0.00 0.00 37 1007.6
20260831213041 81 321 3.0 8.0 0.00 0.00 0.00 41 1007.8
20260831211533 80 205 6.0 9.0 0.00 0.00 0.00 41 1008.1
20260831210025 79 320 3.0 10.0 0.00 0.00 0.00 43 1008.2
20260831204530 79 227 4.0 11.0 0.00 0.00 0.00 43 1008.2
20260831203031 78 330 5.0 8.0 0.00 0.00 0.00 45 1008.5
20260831201533 77 309 4.0 8.0 0.00 0.00 0.00 46 1008.7
20260831200024 75 304 4.0 7.0 0.00 0.00 0.00 49 1009.0
20260831194528 74 309 2.0 7.0 0.00 0.00 0.00 50 1009.3
20260831193035 73 322 3.0 9.0 0.00 0.00 0.00 52 1009.3
20260831191536 72 331 3.0 7.0 0.00 0.00 0.00 54 1009.8
20260831190018 71 298 4.0 7.0 0.00 0.00 0.00 55 1010.0
20260831184535 70 301 3.0 7.0 0.00 0.00 0.00 55 1010.0
20260831183010 70 336 3.0 6.0 0.00 0.00 0.00 57 1010.3
20260831181511 68 275 2.0 6.0 0.00 0.00 0.00 58 1010.7
20260831180032 67 323 2.0 4.0 0.00 0.00 0.00 59 1010.8
20260831174524 66 327 3.0 8.0 0.00 0.00 0.00 62 1010.8
20260831173034 65 259 4.0 9.0 0.00 0.00 0.00 65 1011.0
20260831171517 65 269 3.0 7.0 0.00 0.00 0.00 66 1011.1
20260831170042 63 269 3.0 6.0 0.00 0.00 0.00 70 1011.2
20260831164523 62 224 3.0 6.0 0.00 0.00 0.00 73 1011.2
20260831163027 61 321 4.0 8.0 0.00 0.00 0.00 76 1011.5
20260831161549 60 276 1.0 7.0 0.00 0.00 0.00 77 1011.6
20260831160014 59 244 3.0 7.0 0.00 0.00 0.00 79 1011.5
20260831154559 58 292 2.0 5.0 0.00 0.00 0.00 81 1011.8
20260831153025 57 319 3.0 6.0 0.00 0.00 0.00 82 1011.9
20260831151532 57 319 3.0 8.0 0.00 0.00 0.00 1011.9
20260831150015 56 288 4.0 8.0 0.00 0.00 0.00 84 1011.9
20260831144517 56 307 2.0 4.0 0.00 0.00 0.00 85 1012.1
20260831143024 55 284 1.0 3.0 0.00 0.00 0.00 86 1012.1
20260831141527 54 128 0.0 0.0 0.00 0.00 0.00 88 1012.0
20260831140030 52 128 0.0 0.0 0.00 0.00 0.00 88 1012.0
20260831134540 53 128 0.0 0.0 0.00 0.00 0.00 87 1012.1
20260831133035 53 128 0.0 0.0 0.00 0.00 0.00 87 1012.1
20260831131524 52 128 0.0 0.0 0.00 0.00 0.00 88 1012.3
20260831130030 53 128 0.0 0.0 0.00 0.00 0.00 88 1012.2
20260831124535 53 128 0.0 0.0 0.00 0.00 0.00 88 1012.3
20260831123019 53 128 0.0 0.0 0.00 0.00 0.00 88 1012.4
20260831121533 53 128 0.0 0.0 0.00 0.00 0.00 87 1012.5
20260831120034 54 128 0.0 0.0 0.00 0.00 0.00 87 1012.6
20260831114530 53 128 0.0 0.0 0.00 0.00 0.00 87 1012.7
20260831113016 54 130 0.0 0.0 0.00 0.00 0.00 85 1012.8
20260831111540 55 0.0 0.0 0.00 0.00 0.00 85 1012.7
20260831110037 54 0.0 0.0 0.00 0.00 0.00 85 1013.1
20260831104555 54 125 0.0 0.0 0.00 0.00 0.00 84 1013.0
20260831103031 55 125 0.0 0.0 0.00 0.00 0.00 83 1013.0
20260831101518 55 125 0.0 0.0 0.00 0.00 0.00 84 1013.2
20260831100027 55 115 0.0 0.0 0.00 0.00 0.00 83 1013.2
20260831094541 56 118 0.0 0.0 0.00 0.00 0.00 83 1013.3
20260831093036 56 118 0.0 0.0 0.00 0.00 0.00 82 1013.6
20260831091532 56 118 0.0 0.0 0.00 0.00 0.00 81 1013.7
20260831090031 56 107 0.0 1.0 0.00 0.00 0.00 80 1013.7
20260831084537 57 101 0.0 0.0 0.00 0.00 0.00 79 1013.8
20260831083042 58 101 0.0 0.0 0.00 0.00 0.00 79 1014.0
20260831081534 58 102 0.0 2.0 0.00 0.00 0.00 79 1014.2
20260831080052 59 105 1.0 3.0 0.00 0.00 0.00 77 1014.2
20260831074524 60 327 0.0 1.0 0.00 0.00 0.00 76 1014.1
20260831073033 61 327 0.0 2.0 0.00 0.00 0.00 75 1014.4
20260831071532 62 319 1.0 4.0 0.00 0.00 0.00 73 1014.6
20260831070007 62 277 2.0 3.0 0.00 0.00 0.00 73 1014.7
20260831064506 62 330 0.0 2.0 0.00 0.00 0.00 72 1014.6
20260831063009 62 330 0.0 0.0 0.00 0.00 0.00 72 1015.0
20260831061508 63 330 1.0 3.0 0.00 0.00 0.00 71 1015.0
20260831060006 63 288 0.0 2.0 0.00 0.00 0.00 71 1015.2
20260831054508 64 306 1.0 2.0 0.00 0.00 0.00 70 1015.3
20260831053008 64 268 0.0 3.0 0.00 0.00 0.00 68 1015.4
20260831051508 65 264 1.0 3.0 0.00 0.00 0.00 67 1015.5
20260831050009 65 264 2.0 4.0 0.00 0.00 0.00 67 1015.6
20260831044517 65 298 2.0 6.0 0.00 0.00 0.00 66 1015.7
20260831043010 66 275 2.0 4.0 0.00 0.00 0.00 64 1015.6